WW5JC Weather Reports


Display with metric or nautical units.
time (UTC)temp
F
wind
direction
speed
MPH
gust
MPH
rain 1hr
in
rain 24hr
in
rain mn
in
humidity
%
barometer
mb
20260510040925 72 124 3.0 4.0 0.00 0.00 0.00 96 1012.2
20260510040422 72 125 4.0 4.0 0.00 0.00 0.00 96 1012.3
20260510035917 72 116 2.0 3.0 0.00 0.00 0.00 95 1012.1
20260510035414 72 124 2.0 2.0 0.00 0.00 0.00 95 1012.3
20260510034914 72 124 3.0 3.0 0.00 0.00 0.00 95 1012.2
20260510034413 72 129 2.0 3.0 0.00 0.00 0.00 95 1012.0
20260510033908 72 119 4.0 4.0 0.00 0.00 0.00 94 1011.9
20260510033405 72 114 4.0 4.0 0.00 0.00 0.00 94 1011.9
20260510032902 72 127 2.0 2.0 0.00 0.00 0.00 94 1012.0
20260510032359 72 111 3.0 3.0 0.00 0.00 0.00 93 1011.9
20260510031854 73 122 4.0 4.0 0.00 0.00 0.00 93 1012.0
20260510031349 73 125 3.0 3.0 0.00 0.00 0.00 92 1011.7
20260510030849 73 121 4.0 4.0 0.00 0.00 0.00 91 1012.0
20260510030346 73 124 4.0 4.0 0.00 0.00 0.00 92 1011.9
20260510025844 73 111 4.0 4.0 0.00 0.00 0.00 91 1011.9
20260510025341 73 149 3.0 3.0 0.00 0.00 0.00 91 1011.9
20260510024838 73 149 2.0 2.0 0.00 0.00 0.00 91 1011.8
20260510024334 73 149 3.0 3.0 0.00 0.00 0.00 90 1011.9
20260510023831 73 149 2.0 2.0 0.00 0.00 0.00 90 1011.6
20260510023327 73 149 1.0 2.0 0.00 0.00 0.00 90 1011.9
20260510022824 73 149 2.0 2.0 0.00 0.00 0.00 88 1011.8
20260510022323 73 149 0.0 0.0 0.00 0.00 0.00 89 1011.7
20260510021823 72 149 1.0 1.0 0.00 0.00 0.00 90 1011.7
20260510021321 73 149 0.0 0.0 0.00 0.00 0.00 89 1011.8
20260510020817 73 149 0.0 0.0 0.00 0.00 0.00 88 1011.7
20260510020312 73 144 0.0 0.0 0.00 0.00 0.00 88 1011.6
20260510015808 74 144 0.0 0.0 0.00 0.00 0.00 87 1011.6
20260510015306 74 144 0.0 0.0 0.00 0.00 0.00 86 1011.6
20260510014759 74 144 0.0 1.0 0.00 0.00 0.00 86 1011.6
20260510014256 74 144 0.0 1.0 0.00 0.00 0.00 85 1011.5
20260510013753 75 144 0.0 0.0 0.00 0.00 0.00 85 1011.4
20260510013249 75 144 0.0 1.0 0.00 0.00 0.00 84 1011.3
20260510012749 75 144 0.0 0.0 0.00 0.00 0.00 82 1011.3
20260510012243 76 144 1.0 1.0 0.00 0.00 0.00 82 1011.3
20260510011738 76 144 1.0 2.0 0.00 0.00 0.00 81 1011.0
20260510011234 77 144 2.0 2.0 0.00 0.00 0.00 78 1010.9
20260510010731 77 144 1.0 2.0 0.00 0.00 0.00 78 1010.9
20260510010227 78 144 2.0 2.0 0.00 0.00 0.00 78 1010.8
20260510005724 78 144 1.0 1.0 0.00 0.00 0.00 77 1010.7
20260510005220 79 144 2.0 2.0 0.00 0.00 0.00 76 1010.7
20260510004719 79 144 2.0 2.0 0.00 0.00 0.00 75 1010.7
20260510004216 79 144 2.0 2.0 0.00 0.00 0.00 74 1010.7
20260510003714 80 144 2.0 2.0 0.00 0.00 0.00 73 1010.8
20260510003209 80 144 2.0 2.0 0.00 0.00 0.00 71 1010.7
20260510002708 80 144 2.0 2.0 0.00 0.00 0.00 72 1010.5
20260510002206 81 144 2.0 2.0 0.00 0.00 0.00 70 1010.6
20260510001703 81 145 1.0 2.0 0.00 0.00 0.00 70 1010.6
20260510001201 81 144 2.0 3.0 0.00 0.00 0.00 70 1010.5
20260510000656 81 145 1.0 1.0 0.00 0.00 0.00 70 1010.4
20260510000154 82 145 1.0 2.0 0.00 0.00 0.00 69 1010.4
20260509235651 82 116 3.0 4.0 0.00 0.00 0.00 66 1010.5
20260509235147 82 117 3.0 3.0 0.00 0.00 0.00 64 1010.5
20260509234643 82 117 1.0 1.0 0.00 0.00 0.00 66 1010.5
20260509234140 82 90 2.0 2.0 0.00 0.00 0.00 66 1010.6
20260509233638 81 90 3.0 3.0 0.00 0.00 0.00 69 1010.7
20260509233135 80 45 3.0 4.0 0.00 0.00 0.00 69 1010.4
20260509232631 80 98 1.0 2.0 0.00 0.00 0.00 70 1010.5
20260509232128 81 98 2.0 2.0 0.00 0.00 0.00 70 1010.6
20260509231625 81 96 3.0 3.0 0.00 0.00 0.00 72 1010.3
20260509231123 81 103 2.0 2.0 0.00 0.00 0.00 69 1010.4
20260509230619 83 105 3.0 4.0 0.00 0.00 0.00 69 1010.6
20260509230116 83 60 1.0 2.0 0.00 0.00 0.00 68 1010.2
20260509225612 84 102 3.0 4.0 0.00 0.00 0.00 66 1010.4
20260509225108 83 51 1.0 2.0 0.00 0.00 0.00 66 1010.4
20260509224603 84 51 1.0 2.0 0.00 0.00 0.00 67 1010.2
20260509224101 83 50 4.0 6.0 0.00 0.00 0.00 63 1010.5
20260509223557 84 115 1.0 1.0 0.00 0.00 0.00 66 1010.5
20260509223055 83 95 2.0 3.0 0.00 0.00 0.00 64 1010.4
20260509222551 82 102 1.0 2.0 0.00 0.00 0.00 65 1010.3
20260509222047 84 116 6.0 7.0 0.00 0.00 0.00 63 1010.4
20260509221543 84 175 3.0 3.0 0.00 0.00 0.00 62 1010.5
20260509221039 84 141 4.0 4.0 0.00 0.00 0.00 66 1010.4
20260509220535 85 67 8.0 9.0 0.00 0.00 0.00 64 1010.2
20260509220031 84 187 0.0 0.0 0.00 0.00 0.00 59 1010.3
20260509215526 84 187 1.0 2.0 0.00 0.00 0.00 60 1010.4
20260509215024 83 187 3.0 3.0 0.00 0.00 0.00 62 1010.4
20260509214521 84 161 2.0 2.0 0.00 0.00 0.00 62 1010.2
20260509214018 84 59 0.0 1.0 0.00 0.00 0.00 63 1010.4
20260509213514 84 90 4.0 4.0 0.00 0.00 0.00 63 1010.4
20260509213011 85 110 3.0 4.0 0.00 0.00 0.00 63 1010.7
20260509212508 84 109 2.0 2.0 0.00 0.00 0.00 62 1010.7
20260509212006 83 110 0.0 1.0 0.00 0.00 0.00 65 1010.7
20260509211506 83 110 2.0 3.0 0.00 0.00 0.00 66 1010.9
20260509211003 82 110 3.0 3.0 0.00 0.00 0.00 71 1010.8
20260509210500 82 99 2.0 2.0 0.00 0.00 0.00 70 1010.8
20260509205955 83 148 2.0 2.0 0.00 0.00 0.00 68 1011.2
20260509205450 84 113 1.0 2.0 0.00 0.00 0.00 62 1010.9
20260509204946 84 114 3.0 3.0 0.00 0.00 0.00 63 1011.1
20260509204443 85 89 0.0 1.0 0.00 0.00 0.00 60 1011.0
20260509203939 83 127 1.0 1.0 0.00 0.00 0.00 61 1011.2
20260509203435 83 127 3.0 4.0 0.00 0.00 0.00 70 1011.2
20260509202933 83 164 3.0 6.0 0.00 0.00 0.00 72 1011.2
20260509202429 82 68 3.0 3.0 0.00 0.00 0.00 69 1011.3
20260509201924 81 67 2.0 2.0 0.00 0.00 0.00 72 1011.5
20260509201419 80 48 4.0 4.0 0.00 0.00 0.00 75 1011.5
20260509200917 80 13 2.0 2.0 0.00 0.00 0.00 71 1011.6
20260509200416 81 38 4.0 6.0 0.00 0.00 0.00 72 1011.6
20260509195913 82 34 1.0 2.0 0.00 0.00 0.00 72 1011.8
20260509195409 82 13 2.0 2.0 0.00 0.00 0.00 71 1011.7
20260509194908 82 99 2.0 2.0 0.00 0.00 0.00 73 1011.6
20260509194405 82 340 0.0 0.0 0.00 0.00 0.00 70 1011.8
20260509193901 81 340 3.0 3.0 0.00 0.00 0.00 71 1011.8
20260509193356 81 39 2.0 3.0 0.00 0.00 0.00 76 1011.8
20260509192852 82 56 0.0 1.0 0.00 0.00 0.00 73 1011.9
20260509192348 81 81 1.0 1.0 0.00 0.00 0.00 74 1011.8
20260509191844 81 110 4.0 6.0 0.00 0.00 0.00 76 1011.9
20260509191340 80 109 5.0 6.0 0.00 0.00 0.00 77 1011.8
20260509190836 81 106 9.0 9.0 0.00 0.00 0.00 77 1012.0
20260509190333 81 42 1.0 1.0 0.00 0.00 0.00 77 1012.0
20260509185830 80 35 2.0 3.0 0.00 0.00 0.00 79 1012.1
20260509185327 79 89 1.0 2.0 0.00 0.00 0.00 82 1012.2
20260509184824 79 41 1.0 1.0 0.00 0.00 0.00 79 1012.2
20260509184321 79 41 2.0 2.0 0.00 0.00 0.00 79 1012.3
20260509183817 78 41 3.0 3.0 0.00 0.00 0.00 80 1012.2
20260509183307 79 42 2.0 2.0 0.00 0.00 0.00 80 1012.3
20260509182803 80 76 2.0 2.0 0.00 0.00 0.00 79 1012.3
20260509182300 80 76 1.0 1.0 0.00 0.00 0.00 79 1012.1
20260509181757 80 251 1.0 2.0 0.00 0.00 0.00 79 1012.4
20260509181255 79 57 0.0 0.0 0.00 0.00 0.00 80 1012.3
20260509180752 78 56 2.0 3.0 0.00 0.00 0.00 83 1012.3
20260509180248 79 51 5.0 7.0 0.00 0.00 0.00 83 1012.4
20260509175745 80 34 4.0 6.0 0.00 0.00 0.00 80 1012.3
20260509175241 79 98 2.0 2.0 0.00 0.00 0.00 79 1012.6
20260509174737 79 19 1.0 1.0 0.00 0.00 0.00 78 1012.5
20260509174233 78 341 4.0 6.0 0.00 0.00 0.00 80 1012.7
20260509173729 78 35 0.0 1.0 0.00 0.00 0.00 83 1012.7
20260509173225 78 36 4.0 4.0 0.00 0.00 0.00 82 1013.0
20260509172721 77 358 4.0 4.0 0.00 0.00 0.00 82 1012.5
20260509172218 77 351 3.0 3.0 0.00 0.00 0.00 83 1012.8
20260509171713 77 7 1.0 3.0 0.00 0.00 0.00 84 1012.9
20260509171210 77 349 2.0 2.0 0.00 0.00 0.00 83 1012.9
20260509170707 77 22 3.0 3.0 0.00 0.00 0.00 83 1012.8
20260509170202 76 351 4.0 4.0 0.00 0.00 0.00 84 1012.9
20260509165701 77 23 1.0 1.0 0.00 0.00 0.00 83 1012.9
20260509165156 77 359 9.0 9.0 0.00 0.00 0.00 83 1012.9
20260509164653 77 0 6.0 7.0 0.00 0.00 0.00 83 1013.0
20260509164148 76 340 5.0 6.0 0.00 0.00 0.00 84 1012.9
20260509163646 76 358 3.0 4.0 0.00 0.00 0.00 85 1012.9
20260509163142 76 346 8.0 9.0 0.00 0.00 0.00 85 1012.9
20260509162640 75 344 4.0 4.0 0.00 0.00 0.00 87 1012.9
20260509162135 75 39 2.0 2.0 0.00 0.00 0.00 87 1012.8
20260509161631 75 20 1.0 2.0 0.00 0.00 0.00 88 1012.7
20260509161126 75 20 1.0 2.0 0.00 0.00 0.00 87 1012.8
20260509160623 75 346 4.0 4.0 0.00 0.00 0.00 87 1012.6
20260509160118 75 20 2.0 3.0 0.00 0.00 0.00 89 1012.7
20260509155615 75 38 3.0 4.0 0.00 0.00 0.00 87 1012.4
20260509155111 75 49 3.0 4.0 0.00 0.00 0.00 89 1012.5
20260509154607 74 49 2.0 2.0 0.00 0.00 0.00 90 1012.6
20260509154104 74 45 2.0 2.0 0.00 0.00 0.00 90 1012.6
20260509153601 73 46 3.0 3.0 0.00 0.00 0.00 90 1012.8
20260509153058 73 43 5.0 6.0 0.00 0.00 0.00 90 1012.5
20260509152554 74 17 2.0 3.0 0.00 0.00 0.00 89 1012.4
20260509152051 73 48 0.0 1.0 0.00 0.00 0.00 91 1012.7
20260509151547 72 105 0.0 1.0 0.00 0.00 0.00 92 1012.8
20260509151045 72 105 1.0 2.0 0.00 0.00 0.00 93 1012.9
20260509150543 71 106 2.0 2.0 0.00 0.00 0.00 93 1012.8
20260509150041 71 106 2.0 2.0 0.00 0.00 0.00 93 1013.0
20260509145536 70 106 0.0 0.0 0.00 0.00 0.00 94 1012.9
20260509145031 70 106 1.0 1.0 0.00 0.00 0.00 95 1013.0
20260509144529 69 106 3.0 3.0 0.00 0.00 0.00 95 1012.9
20260509144026 69 107 0.0 1.0 0.00 0.00 0.00 96 1012.8
20260509143523 69 106 3.0 4.0 0.00 0.00 0.00 96 1012.9
20260509143021 69 107 2.0 3.0 0.00 0.00 0.00 96 1013.0
20260509142516 69 107 2.0 2.0 0.00 0.00 0.00 96 1013.1
20260509142011 68 107 2.0 3.0 0.00 0.00 0.00 96 1012.9
20260509141508 68 107 1.0 1.0 0.00 0.00 0.00 96 1012.9
20260509141005 68 106 4.0 4.0 0.00 0.00 0.00 96 1013.0
20260509140502 68 79 4.0 4.0 0.00 0.00 0.00 96 1012.9
20260509140000 68 118 3.0 3.0 0.00 0.00 0.00 96 1013.1
20260509135457 68 95 1.0 1.0 0.00 0.00 0.00 96 1013.0
20260509134954 68 95 2.0 3.0 0.00 0.00 0.00 96 1013.0
20260509134451 68 105 2.0 2.0 0.00 0.00 0.00 95 1013.0
20260509133949 68 117 3.0 3.0 0.00 0.00 0.00 95 1013.0
20260509133445 68 107 4.0 4.0 0.00 0.00 0.00 95 1013.0
20260509132943 68 107 2.0 2.0 0.00 0.00 0.00 95 1012.8
20260509132441 67 99 4.0 4.0 0.00 0.00 0.00 95 1012.9
20260509131938 67 111 1.0 1.0 0.00 0.00 0.00 95 1012.9
20260509131435 67 142 3.0 3.0 0.00 0.00 0.00 95 1013.0
20260509130932 67 142 1.0 1.0 0.00 0.00 0.00 95 1013.1
20260509130427 67 143 2.0 3.0 0.00 0.00 0.00 95 1013.1
20260509125924 68 144 2.0 3.0 0.00 0.00 0.00 95 1013.1
20260509125421 67 144 3.0 3.0 0.00 0.00 0.00 95 1013.0
20260509124917 67 192 3.0 3.0 0.00 0.00 0.00 95 1012.9
20260509124414 67 179 3.0 4.0 0.00 0.00 0.00 95 1012.7
20260509123912 67 118 3.0 3.0 0.00 0.00 0.00 95 1013.0
20260509123409 66 155 3.0 3.0 0.00 0.00 0.00 96 1013.0
20260509122904 66 109 4.0 4.0 0.00 0.00 0.00 96 1012.9
20260509122402 66 96 2.0 3.0 0.00 0.00 0.00 96 1012.8
20260509121858 66 96 2.0 2.0 0.00 0.00 0.00 96 1012.8
20260509121355 66 96 2.0 2.0 0.00 0.00 0.00 96 1012.7
20260509120854 66 96 2.0 2.0 0.00 0.00 0.00 96 1012.6
20260509120351 66 96 3.0 3.0 0.00 0.00 0.00 97 1012.5
20260509115849 65 96 2.0 2.0 0.00 0.00 0.00 97 1012.5
20260509115346 65 96 0.0 1.0 0.00 0.00 0.00 97 1012.5
20260509114844 65 97 1.0 2.0 0.00 0.00 0.00 97 1012.6
20260509114342 65 97 1.0 2.0 0.00 0.00 0.00 96 1012.4
20260509113841 65 96 2.0 2.0 0.00 0.00 0.00 96 1012.3
20260509113338 65 96 1.0 1.0 0.00 0.00 0.00 97 1012.1
20260509112834 65 96 1.0 1.0 0.00 0.00 0.00 97 1011.8
20260509112332 65 96 1.0 1.0 0.00 0.00 0.00 96 1011.9
20260509111829 65 96 1.0 1.0 0.00 0.00 0.00 96 1011.8
20260509111325 65 96 0.0 0.0 0.00 0.00 0.00 96 1011.9
20260509110823 65 96 0.0 0.0 0.00 0.00 0.00 97 1011.8
20260509110319 65 96 1.0 2.0 0.00 0.00 0.00 97 1011.4
20260509105817 65 96 0.0 2.0 0.00 0.00 0.00 97 1011.3
20260509105315 65 96 0.0 0.0 0.00 0.00 0.00 97 1011.4
20260509104812 65 96 2.0 2.0 0.00 0.00 0.00 97 1011.6
20260509104308 65 96 2.0 2.0 0.00 0.00 0.00 96 1011.3
20260509103806 65 96 0.0 0.0 0.00 0.00 0.00 96 1011.4
20260509103303 65 96 0.0 0.0 0.00 0.00 0.00 96 1011.4
20260509102802 65 96 1.0 2.0 0.00 0.00 0.00 96 1011.4
20260509102259 65 96 1.0 1.0 0.00 0.00 0.00 96 1011.1
20260509101755 65 97 0.0 1.0 0.00 0.00 0.00 96 1011.3
20260509101251 65 97 1.0 2.0 0.00 0.00 0.00 96 1011.2
20260509100749 65 65 1.0 2.0 0.00 0.00 0.00 96 1011.2
20260509100246 65 65 1.0 1.0 0.00 0.00 0.00 96 1011.2
20260509095742 65 101 1.0 2.0 0.00 0.00 0.00 96 1011.4
20260509095240 65 101 3.0 3.0 0.00 0.00 0.00 96 1011.5
20260509094737 65 101 2.0 2.0 0.00 0.00 0.00 96 1011.4
20260509094233 65 101 1.0 1.0 0.00 0.00 0.00 96 1011.4
20260509093731 65 101 0.0 1.0 0.00 0.00 0.00 97 1011.2
20260509093228 65 101 0.0 1.0 0.00 0.00 0.00 96 1011.4
20260509092727 65 101 1.0 1.0 0.00 0.00 0.00 96 1011.5
20260509092224 65 101 1.0 2.0 0.00 0.00 0.00 97 1011.4
20260509091722 65 101 0.0 0.0 0.00 0.00 0.00 96 1011.1
20260509091218 65 101 1.0 2.0 0.00 0.00 0.00 96 1011.3
20260509090716 65 101 2.0 2.0 0.00 0.00 0.00 96 1011.2
20260509090213 65 101 0.0 0.0 0.00 0.00 0.00 95 1011.4
20260509085711 65 101 0.0 0.0 0.00 0.00 0.00 95 1011.5
20260509085207 66 101 0.0 0.0 0.00 0.00 0.00 95 1011.4
20260509084704 66 101 1.0 1.0 0.00 0.00 0.00 95 1011.7
20260509084201 66 101 1.0 1.0 0.00 0.00 0.00 94 1011.5
20260509083659 66 101 0.0 1.0 0.00 0.00 0.00 94 1011.8
20260509083155 66 101 1.0 1.0 0.00 0.00 0.00 94 1011.7
20260509082652 66 101 1.0 1.0 0.00 0.00 0.00 94 1011.6
20260509082148 66 101 0.0 0.0 0.00 0.00 0.00 94 1011.8
20260509081645 66 101 1.0 2.0 0.00 0.00 0.00 94 1011.8
20260509081143 66 101 2.0 2.0 0.00 0.00 0.00 94 1012.0
20260509080641 66 101 1.0 1.0 0.00 0.00 0.00 94 1011.8
20260509080139 66 101 1.0 2.0 0.00 0.00 0.00 95 1011.9
20260509075637 66 101 1.0 2.0 0.00 0.00 0.00 95 1012.1
20260509075134 66 101 2.0 3.0 0.00 0.00 0.00 95 1012.1
20260509074631 66 92 1.0 1.0 0.00 0.00 0.00 95 1012.1
20260509074127 66 105 2.0 2.0 0.00 0.00 0.00 95 1012.2
20260509073624 66 89 2.0 2.0 0.00 0.00 0.00 94 1012.2
20260509073120 66 88 2.0 2.0 0.00 0.00 0.00 92 1012.4
20260509072617 66 88 0.0 0.0 0.00 0.00 0.00 93 1012.1
20260509072114 66 88 0.0 1.0 0.00 0.00 0.00 94 1012.2
20260509071610 66 88 1.0 2.0 0.00 0.00 0.00 94 1012.2
20260509071108 65 88 1.0 2.0 0.00 0.00 0.00 95 1012.2
20260509070605 66 117 2.0 2.0 0.00 0.00 0.00 94 1011.9
20260509070101 66 119 2.0 3.0 0.00 0.00 0.00 95 1011.8
20260509065556 66 177 4.0 6.0 0.00 0.00 0.00 94 1011.9
20260509065053 66 191 3.0 3.0 0.00 0.00 0.00 95 1012.2
20260509064550 66 191 2.0 2.0 0.00 0.00 0.00 94 1012.5
20260509064048 66 191 1.0 1.0 0.00 0.00 0.00 94 1012.7
20260509063544 66 191 0.0 1.0 0.00 0.00 0.00 93 1012.7
20260509063041 66 191 0.0 0.0 0.00 0.00 0.00 93 1012.6
20260509062538 66 191 1.0 1.0 0.00 0.00 0.00 93 1012.7
20260509062036 66 191 1.0 1.0 0.00 0.00 0.00 94 1012.5
20260509061532 65 191 1.0 2.0 0.00 0.00 0.00 94 1012.6
20260509061030 65 191 0.0 0.0 0.00 0.00 0.00 94 1012.8
20260509060527 65 191 0.0 0.0 0.00 0.00 0.00 94 1013.0
20260509060023 65 191 0.0 0.0 0.00 0.00 0.00 94 1012.8
20260509055518 66 191 1.0 1.0 0.00 0.00 0.00 93 1012.7
20260509055015 66 191 1.0 2.0 0.00 0.00 0.00 92 1012.5
20260509054512 66 192 2.0 3.0 0.00 0.00 0.00 92 1012.4
20260509054010 66 192 1.0 2.0 0.00 0.00 0.00 92 1012.7
20260509053508 66 189 2.0 2.0 0.00 0.00 0.00 91 1012.6
20260509053005 66 139 2.0 2.0 0.00 0.00 0.00 92 1012.7
20260509052502 66 112 2.0 3.0 0.00 0.00 0.00 92 1012.6
20260509052000 67 112 4.0 4.0 0.00 0.00 0.00 90 1012.8
20260509051458 67 86 1.0 2.0 0.00 0.00 0.00 89 1012.7
20260509050954 67 86 1.0 1.0 0.00 0.00 0.00 89 1012.9
20260509050451 67 86 2.0 2.0 0.00 0.00 0.00 90 1012.9
20260509045948 68 86 2.0 2.0 0.00 0.00 0.00 90 1013.1
20260509045445 68 76 2.0 2.0 0.00 0.00 0.00 89 1013.2
20260509044942 68 76 0.0 1.0 0.00 0.00 0.00 89 1013.5
20260509044440 68 75 0.0 1.0 0.00 0.00 0.00 89 1013.6
20260509043937 68 42 3.0 4.0 0.00 0.00 0.00 90 1013.6
20260509043432 68 65 4.0 4.0 0.00 0.00 0.00 91 1013.5
20260509042928 67 37 6.0 7.0 0.00 0.00 0.00 92 1013.8
20260509042426 67 33 4.0 6.0 0.00 0.00 0.00 93 1013.3
20260509041922 67 47 4.0 6.0 0.00 0.00 0.00 94 1013.1
20260509041419 66 34 4.0 4.0 0.00 0.00 0.00 94 1012.7